Tracking 30685 objects as of 18-Jun-2025
HD Live streaming from Space Station
objects crossing your sky now

CZ-2C R/B

Track CZ-2C R/B now!
10-day predictions


NORAD ID: 43610
Int'l Code: 2018-068B
Perigee: 650.5 km
Apogee: 774.5 km
Inclination: 98.7 °
Period: 98.9 minutes
Semi major axis: 7083 km
RCS: Unknown
Launch date: September 6, 2008
Source: People's Republic of China (PRC)
Launch site: Taiyaun Space Center, China (TSC)

Note: This is a ROCKET BODY
Your satellite tracking list
Your tracking list is empty




NASA's NSSDC Master Catalog

Two Line Element Set (TLE):
1 43610U 18068B   25168.78932576  .00000279  00000-0  71787-4 0  9998
2 43610  98.7310 352.2037 0087530  23.7573 336.7627 14.56240757359851
Source of the keplerian elements: AFSPC